TimeCDT,TemperatureF,Dew PointF,Humidity,Sea Level PressureIn,VisibilityMPH,Wind Direction,Wind SpeedMPH,Gust SpeedMPH,PrecipitationIn,Events,Conditions,WindDirDegrees,DateUTC
12:15 AM,48.6,45.7,90,30.10,10.0,East,6.9,-,N/A,,Overcast,80,2013-05-18 05:15:00
12:35 AM,48.4,45.5,90,30.10,10.0,East,5.8,-,N/A,,Overcast,90,2013-05-18 05:35:00
12:55 AM,48.6,45.7,90,30.10,10.0,East,8.1,-,N/A,,Overcast,90,2013-05-18 05:55:00
1:15 AM,48.7,46.0,90,30.10,10.0,East,5.8,-,N/A,,Overcast,80,2013-05-18 06:15:00
1:35 AM,49.1,46.4,90,30.10,10.0,East,6.9,-,N/A,,Overcast,90,2013-05-18 06:35:00
1:55 AM,49.1,46.4,90,30.09,10.0,East,6.9,-,N/A,,Overcast,90,2013-05-18 06:55:00
2:15 AM,49.1,46.4,90,30.09,10.0,East,6.9,-,N/A,,Overcast,90,2013-05-18 07:15:00
2:35 AM,49.1,46.4,90,30.08,10.0,East,8.1,-,N/A,,Overcast,90,2013-05-18 07:35:00
2:55 AM,49.1,46.4,90,30.07,10.0,East,8.1,-,N/A,,Overcast,80,2013-05-18 07:55:00
3:15 AM,49.1,46.4,90,30.07,10.0,East,5.8,-,N/A,,Overcast,90,2013-05-18 08:15:00
3:35 AM,49.1,46.0,89,30.07,10.0,ENE,4.6,-,N/A,,Overcast,70,2013-05-18 08:35:00
3:55 AM,49.1,46.4,90,30.07,10.0,ENE,4.6,-,N/A,,Overcast,70,2013-05-18 08:55:00
4:15 AM,48.6,45.9,90,30.07,10.0,ENE,4.6,-,N/A,,Mostly Cloudy,60,2013-05-18 09:15:00
4:35 AM,48.6,45.9,90,30.07,10.0,ENE,4.6,-,N/A,,Scattered Clouds,60,2013-05-18 09:35:00
4:55 AM,48.6,45.9,90,30.06,10.0,East,5.8,-,N/A,,Scattered Clouds,80,2013-05-18 09:55:00
5:15 AM,48.2,45.7,91,30.07,10.0,ENE,5.8,-,N/A,,Scattered Clouds,70,2013-05-18 10:15:00
5:35 AM,48.2,45.5,90,30.07,10.0,East,5.8,-,N/A,,Scattered Clouds,80,2013-05-18 10:35:00
5:55 AM,48.2,45.7,91,30.07,10.0,East,5.8,-,N/A,,Clear,80,2013-05-18 10:55:00
6:15 AM,48.4,45.9,91,30.07,10.0,East,6.9,-,N/A,,Scattered Clouds,80,2013-05-18 11:15:00
6:35 AM,49.8,46.4,88,30.07,10.0,East,9.2,-,N/A,,Scattered Clouds,90,2013-05-18 11:35:00
6:55 AM,50.5,46.4,86,30.08,10.0,East,9.2,-,N/A,,Clear,90,2013-05-18 11:55:00
7:15 AM,51.1,46.4,84,30.07,10.0,East,8.1,-,N/A,,Clear,100,2013-05-18 12:15:00
7:35 AM,52.0,46.6,82,30.08,10.0,East,9.2,-,N/A,,Clear,90,2013-05-18 12:35:00
7:55 AM,52.7,46.9,81,30.07,10.0,East,9.2,-,N/A,,Clear,90,2013-05-18 12:55:00
8:15 AM,52.7,47.1,81,30.07,10.0,East,10.4,-,N/A,,Clear,100,2013-05-18 13:15:00
8:35 AM,54.3,47.5,78,30.07,10.0,East,11.5,-,N/A,,Clear,90,2013-05-18 13:35:00
8:55 AM,55.6,48.2,76,30.07,10.0,East,11.5,-,N/A,,Clear,90,2013-05-18 13:55:00
9:15 AM,57.2,49.3,75,30.07,10.0,East,8.1,-,N/A,,Clear,90,2013-05-18 14:15:00
9:35 AM,57.7,49.6,74,30.07,10.0,SE,9.2,-,N/A,,Scattered Clouds,130,2013-05-18 14:35:00
9:55 AM,57.9,50.4,76,30.07,10.0,East,8.1,-,N/A,,Overcast,100,2013-05-18 14:55:00
10:15 AM,58.8,51.1,75,30.07,10.0,SE,9.2,-,N/A,,Overcast,130,2013-05-18 15:15:00
10:35 AM,59.7,52.0,76,30.07,10.0,SE,5.8,-,N/A,,Overcast,140,2013-05-18 15:35:00
10:55 AM,60.3,53.1,77,30.07,10.0,SE,5.8,-,N/A,,Overcast,140,2013-05-18 15:55:00
11:15 AM,61.0,53.4,76,30.07,10.0,SE,9.2,-,N/A,,Overcast,130,2013-05-18 16:15:00
11:35 AM,61.9,53.4,74,30.06,10.0,ESE,8.1,-,N/A,,Overcast,120,2013-05-18 16:35:00
11:55 AM,63.0,54.5,74,30.06,10.0,SSE,8.1,-,N/A,,Overcast,150,2013-05-18 16:55:00
12:15 PM,63.9,55.4,74,30.05,7.0,SSE,6.9,-,N/A,,Overcast,150,2013-05-18 17:15:00
12:35 PM,65.5,56.7,73,30.05,7.0,South,8.1,-,N/A,,Overcast,190,2013-05-18 17:35:00
12:55 PM,65.5,56.7,73,30.05,10.0,SSE,5.8,-,N/A,,Overcast,160,2013-05-18 17:55:00
1:15 PM,66.2,57.6,74,30.04,10.0,South,9.2,-,N/A,,Overcast,170,2013-05-18 18:15:00
1:35 PM,66.9,58.1,73,30.03,10.0,South,6.9,-,N/A,,Overcast,180,2013-05-18 18:35:00
2:15 PM,67.8,57.6,70,30.02,10.0,SSE,4.6,-,N/A,,Overcast,150,2013-05-18 19:15:00
2:17 PM,68.0,57.2,68,30.01,10.0,SE,9.2,-,N/A,,Overcast,140,2013-05-18 19:17:00
2:35 PM,69.1,57.7,67,30.01,10.0,South,8.1,-,N/A,,Overcast,180,2013-05-18 19:35:00
2:55 PM,69.1,57.6,67,30.01,10.0,SSE,5.8,-,N/A,,Overcast,160,2013-05-18 19:55:00
3:15 PM,70.3,58.3,66,30.00,10.0,SE,8.1,-,N/A,,Mostly Cloudy,140,2013-05-18 20:15:00
3:35 PM,72.0,59.0,64,29.98,10.0,SSE,9.2,-,N/A,,Scattered Clouds,150,2013-05-18 20:35:00
3:55 PM,70.9,59.0,66,29.97,10.0,South,11.5,16.1,N/A,,Scattered Clouds,170,2013-05-18 20:55:00
4:15 PM,71.4,59.0,65,29.97,10.0,SSE,12.7,18.4,N/A,,Scattered Clouds,160,2013-05-18 21:15:00
4:35 PM,71.6,59.4,65,29.96,10.0,SSE,9.2,-,N/A,,Mostly Cloudy,150,2013-05-18 21:35:00
4:55 PM,73.6,59.7,62,29.96,10.0,SE,12.7,16.1,N/A,,Mostly Cloudy,140,2013-05-18 21:55:00
5:15 PM,73.0,59.4,62,29.96,10.0,SSE,10.4,17.3,N/A,,Scattered Clouds,150,2013-05-18 22:15:00
5:35 PM,73.2,60.1,63,29.96,10.0,SSE,10.4,-,N/A,,Clear,150,2013-05-18 22:35:00
5:55 PM,73.4,60.3,63,29.96,10.0,SSE,9.2,-,N/A,,Scattered Clouds,150,2013-05-18 22:55:00
6:15 PM,73.4,60.3,63,29.95,10.0,SE,9.2,-,N/A,,Scattered Clouds,130,2013-05-18 23:15:00
6:35 PM,72.9,59.4,62,29.95,10.0,South,9.2,-,N/A,,Scattered Clouds,180,2013-05-18 23:35:00
6:55 PM,72.5,59.4,63,29.95,10.0,SSE,10.4,-,N/A,,Clear,160,2013-05-18 23:55:00
7:15 PM,72.5,59.7,64,29.95,10.0,SE,6.9,-,N/A,,Clear,130,2013-05-19 00:15:00
7:35 PM,70.9,59.9,68,29.95,10.0,SE,6.9,-,N/A,,Clear,130,2013-05-19 00:35:00
7:55 PM,70.3,59.9,69,29.95,10.0,ESE,6.9,-,N/A,,Clear,120,2013-05-19 00:55:00
8:15 PM,68.9,59.9,73,29.96,10.0,ESE,5.8,-,N/A,,Clear,110,2013-05-19 01:15:00
8:35 PM,67.6,59.9,76,29.96,10.0,ESE,6.9,-,N/A,,Clear,110,2013-05-19 01:35:00
8:55 PM,66.7,59.7,78,29.96,10.0,SE,3.5,-,N/A,,Clear,130,2013-05-19 01:55:00
9:15 PM,65.8,59.4,80,29.96,10.0,ESE,3.5,-,N/A,,Clear,110,2013-05-19 02:15:00
9:35 PM,64.4,59.4,84,29.96,10.0,East,3.5,-,N/A,,Clear,100,2013-05-19 02:35:00
9:55 PM,63.5,59.0,85,29.96,7.0,ESE,3.5,-,N/A,,Clear,120,2013-05-19 02:55:00
10:15 PM,63.9,58.8,84,29.96,10.0,ESE,4.6,-,N/A,,Clear,120,2013-05-19 03:15:00
10:35 PM,64.2,59.0,83,29.95,10.0,SE,4.6,-,N/A,,Clear,130,2013-05-19 03:35:00
11:15 PM,63.7,58.6,84,29.94,7.0,SE,4.6,-,N/A,,Clear,130,2013-05-19 04:15:00
11:35 PM,63.5,58.3,83,29.95,7.0,SE,3.5,-,N/A,,Clear,140,2013-05-19 04:35:00
11:55 PM,62.1,58.1,87,29.93,7.0,SE,5.8,-,N/A,,Clear,140,2013-05-19 04:55:00